SCP
0 0 0 0 0 0 0 0 0 0 0 0 0 0 0 0 0 0 0 0 0 0 0 0 0 0 0 0 0 0 0 0 0 0 0 0 0 0 0 0 0 0 0
0 0 0 0 0 0 0 0 0 0 0 0 0 0 0 0 0 0 0 0 0 0 0 0 0 0 0 0 0 0 0 0 0 0 0 0 0 0 0 0 0 0 0
0 0 0 0 0 0 0 0 0 0 0 0 0 0 0 0 0 0 0 0 0 0 0 0 0 0 0 0 0 0 0 0 0 0 0 0 0 0 0 0 0 0 0
0 0 0 0 0 0 0 0 0 0 0 0 0 0 0 0 0 0 0 0 0 0 0 0 0 0 0 0 0 0 0 0 0 0 0 0 0 0 0 0 0 0 0
0 0 0 0 0 0 0 0 0 0 0 0 0 0 0 0 0 0 0 0 0 0 0 0 0 0 0 0 0 0 0 0 0 0 0 0 0 0 0 0 0 0 0
-0 -0 -0 -0 0 0 0 0 0 0 0 0 0 0 0 0 0 0 0 0 0 0 0 0 0 0 0 0 0 0 0 0 0 0 0 0 0 0 0 0 0 0 0
-0 -0 -0 -0 -0 -0 -0 0 0 0 0 0 0 0 0 0 0 0 0 0 0 0 0 0 0 0 0 0 0 0 0 0 0 0 0 0 0 0 0 0 0 0 0
-0 -0 -0 -0 -0 -0 -0 -0 -0 -0 -0 0 0 0 0 0 0 0 0 0 0 0 0 0 0 0 0 0 0 0 0 0 0 0 0 0 0 0 0 0 0 0 0
-0 -0 -0 -0 -0 -0 -0 -0 -0 -0 -0 -0 0 0 0 0 0 0 0 0 0 0 0 0 0 0 0 0 0 0 0 0 0 0 0 0 0 0 0 0 0 0 0
-0 -0 -0 -0 -0 -0 -0 -0 0 -0 -0 -0 0 0 0 0 0 0 0 0 0 0 0 0 0 0 0 0 0 0 0 0 0 0 0 0 0 0 0 0 0 0 0
-0 -0 -0 -0 -0 -0 -0 -0 -0 0 0 -0 -0 0 0 0 0 0 0 0 0 0 0 0 0 0 0 0 0 0 0 0 0 0 0 0 0 0 0 0 0 0 0
-0 0 0 0 0 0 0 -0 -0 0 0 0 0 -0 0 0 0 0 0 0 0 0 0 0 0 0 0 0 0 0 0 0 0 0 0 0 0 0 0 0 0 0 0
-0 -0 0 0 0 0 0 0 0 0 0 0 0 0 0 0 0 0 0 0 0 0 0 0 0 0 0 0 0 0 0 0 0 0 0 0 0 0 0 0 0 0 0
-0 -0 0 0 0 0 0 0 0 0 0 0 0 0 0 0 0 0 0 0 0 0 0 0 0 0 0 0 0 0 0 0 0 0 0 0 0 0 0 0 0 0 0
0 0 0 0 0 0 0 0 0 0 0 0 0 0 0 0 0 0 0 0 0 0 0 0 0 0 0 0 0 0 0 0 0 0 0 0 0 0 0 0 0 0 0
0 0 0 0 0 0 0 0 -0 0 0 0 0 0 0 0 0 0 0 0 0 0 0 0 0 0 0 0 0 0 0 0 0 0 0 0 0 0 0 0 0 0 0
0 0 0 0 0 0 0 0 0 -0 -0 0 0 0 0 0 0 0 0 0 0 0 0 0 0 0 0 0 0 0 0 0 0 0 0 0 0 0 0 0 0 0 0
0 0 0 0 0 0 0 0 0 0 0 0 -0 -0 0 0 0 0 0 0 0 0 0 0 0 0 0 0 0 0 0 0 0 0 0 0 0 0 0 0 0 0 0
0 0 0 0 0 0 0 0 0 0 0 0 -0 -0 0 0 0 0 0 0 0 0 0 0 0 0 0 0 0 0 0 0 0 0 0 0 0 0 0 0 0 0 0
0 0 0 0 0 0 0 0 0 0 0 0 0 0 0 0 0 0 0 0 0 0 0 0 0 0 0 0 0 0 0 0 0 0 0 0 0 0 0 0 0 0 0
0 0 0 0 0 0 0 0 0 0 0 0 0 0 0 0 0 0 0 0 0 0 0 0 0 0 0 0 0 0 0 0 0 0 0 0 0 0 0 0 0 0 0
-0 -0 -0 0 0 0 0 0 0 0 0 0 0 0 0 0 0 0 0 0 0 0 0 0 0 0 0 0 0 0 0 0 0 0 0 0 0 0 0 0 0 0 0
0 -0 0 0 -0 0 0 0 0 0 0 0 0 0 0 0 0 0 0 0 0 0 0 0 0 0 0 0 0 0 0 0 0 0 0 0 0 0 0 0 0 0 0
0 0 -0 -0 -0 0 0 0 0 0 0 0 0 0 0 0 0 0 0 0 0 0 0 0 0 0 0 0 0 0 0 0 0 0 0 0 0 0 0 0 0 0 0
0 0 -0 -0 -0 -0 0 0 0 0 0 0 0 0 0 0 0 0 0 0 0 0 0 0 0 0 0 0 0 0 0 0 0 0 0 0 0 0 0 0 0 0 0
0 0 0 0 -0 -0 -0 0 0 0 0 0 0 0 0 0 0 0 0 0 0 0 0 0 0 0 0 0 0 0 0 0 0 0 0 0 0 0 0 0 0 0 0
Wind_Speed_500mb
24 29 34 42 52 61 74 88 91 93 96 103 104 104 104 102 102 99 98 101 106 103 103 103 101 95 95 90 83 77 76 73 80 77 69 62 55 50 49 51 56 49 54
25 31 37 45 49 52 61 74 81 91 98 102 102 105 106 106 103 105 105 103 106 109 106 102 101 97 96 91 85 80 78 77 77 77 73 64 55 49 50 50 57 55 52
39 43 41 42 44 44 45 54 61 67 74 86 98 105 106 106 105 106 105 106 108 109 108 103 102 100 98 93 86 84 81 77 75 73 72 63 57 55 57 56 55 58 50
56 60 62 57 55 53 51 49 53 59 68 74 82 93 100 103 107 107 107 107 106 108 107 105 102 103 99 94 88 87 82 79 76 73 72 68 69 63 61 57 56 55 48
76 79 78 75 69 66 63 62 62 63 65 68 77 85 91 99 108 110 109 109 107 107 105 105 103 101 98 93 91 88 84 80 79 75 74 75 77 73 68 58 53 49 44
86 88 86 83 82 77 74 73 73 75 75 74 75 80 86 95 100 101 111 109 108 109 112 106 103 103 97 93 90 87 85 84 84 80 79 82 78 77 67 64 54 48 45
97 100 95 93 92 88 84 81 81 79 78 84 85 81 86 92 99 98 98 106 108 109 108 106 106 102 98 95 91 90 86 83 79 79 84 83 81 76 68 63 55 50 48
103 108 109 109 105 102 100 95 92 86 85 86 89 93 88 91 93 101 100 93 102 110 112 110 106 103 99 98 94 91 85 84 86 87 90 86 84 77 66 54 47 47 44
108 113 116 118 118 115 106 106 103 101 97 95 91 92 95 99 90 95 98 100 95 111 113 109 107 103 98 99 97 94 93 91 88 85 82 74 66 59 56 58 54 49 44
115 119 120 120 122 123 120 112 109 108 110 106 101 98 97 103 98 96 92 101 110 110 109 111 107 103 99 99 99 95 93 95 89 79 70 61 56 55 55 53 49 50 41
123 122 123 121 119 120 128 126 112 109 111 114 114 107 105 106 102 101 98 93 116 115 119 112 113 107 101 96 97 96 95 86 78 68 61 56 51 56 52 54 50 43 42
122 121 121 120 119 120 115 125 125 110 111 117 118 119 112 112 113 100 97 89 102 118 122 113 114 109 103 99 95 93 87 72 70 68 61 61 59 60 56 54 49 46 45
118 118 117 120 122 113 107 118 118 118 111 118 118 122 123 114 116 111 96 90 101 112 110 112 108 107 98 92 94 89 79 76 74 73 75 66 62 59 62 58 54 49 44
112 114 114 112 108 111 101 98 98 108 104 110 112 119 120 115 116 115 101 94 102 104 107 109 106 94 93 91 83 77 82 83 86 83 76 66 66 69 69 64 61 57 49
104 102 102 91 93 98 87 90 88 104 91 100 114 106 107 116 115 110 98 97 106 108 107 99 85 84 91 92 86 90 86 83 88 86 79 79 77 78 75 69 62 57 51
105 97 94 106 115 110 104 117 103 108 104 96 106 104 111 112 102 100 88 83 89 114 106 105 99 105 107 106 102 101 96 95 93 86 85 84 86 87 81 74 65 60 53
98 102 104 102 99 99 100 98 108 110 94 95 96 98 99 99 102 92 86 81 82 103 111 114 119 124 120 116 112 109 104 102 93 90 92 92 91 90 83 78 72 64 55
96 96 97 98 96 96 95 95 91 95 95 107 94 92 90 81 87 95 83 75 94 110 116 125 123 121 124 121 116 111 108 103 96 98 98 98 98 92 86 82 76 67 63
98 97 93 93 90 89 89 91 92 97 98 99 92 92 84 75 68 80 85 94 103 113 121 118 127 125 122 120 116 114 111 111 107 108 107 103 105 94 87 83 74 68 63
99 94 88 89 90 89 88 89 90 91 92 91 87 87 82 74 67 79 91 98 106 113 117 113 124 125 124 121 115 118 113 110 108 110 111 105 104 94 90 83 77 75 64
95 94 88 83 81 81 83 85 87 86 90 89 88 88 84 78 69 74 87 104 112 110 111 110 116 123 122 117 118 116 113 115 117 116 113 108 103 94 86 84 81 71 62
87 90 90 84 79 77 77 72 71 70 84 85 83 86 77 78 69 72 88 103 110 110 109 116 118 120 123 119 119 123 127 125 124 119 115 109 101 96 92 88 80 73 65
81 84 87 84 79 77 75 69 62 55 63 72 71 72 71 73 67 74 91 93 98 100 102 108 111 114 118 122 121 123 124 127 129 124 121 112 107 103 98 92 83 74 66
75 76 81 81 81 79 77 75 68 57 49 48 47 64 63 67 68 72 86 92 92 96 98 104 109 110 113 114 112 115 115 121 129 121 116 113 110 104 98 89 79 69 62
70 71 74 77 79 81 80 76 71 66 58 50 49 44 30 51 67 70 79 82 85 88 94 97 100 103 107 109 108 113 121 125 121 110 103 106 108 103 95 85 76 69 62
64 66 68 70 72 74 75 77 75 71 66 60 52 48 44 36 32 48 60 69 76 79 84 92 98 100 100 103 111 118 119 112 97 99 101 105 101 97 90 79 72 64 59
Wind_Direction_500mb
313 311 310 303 301 295 286 282 280 281 279 277 278 277 276 274 272 268 265 263 261 260 259 258 256 254 253 253 252 251 253 250 253 256 260 262 258 253 260 265 264 273 276
321 305 299 306 304 303 296 286 284 282 282 280 279 276 276 276 274 271 267 263 261 260 259 256 254 253 252 252 251 253 254 253 251 253 255 256 262 259 259 262 272 274 278
339 339 326 318 316 318 311 301 294 293 291 285 280 276 274 274 274 273 271 267 263 260 259 255 255 253 253 250 248 252 251 251 250 249 252 253 253 253 260 261 269 275 279
335 334 333 332 329 326 317 309 303 298 295 291 284 279 273 271 271 271 269 268 265 261 258 255 255 253 254 252 250 251 251 248 245 246 245 248 252 255 253 257 266 271 277
333 330 329 328 320 315 313 309 305 298 296 295 289 280 275 270 267 267 267 264 264 262 258 256 256 255 254 254 249 249 247 245 243 242 242 246 244 246 253 259 263 265 258
329 327 325 324 322 316 311 306 300 302 297 295 289 287 279 272 268 267 266 264 263 261 256 256 255 254 252 251 249 248 246 240 239 238 239 238 244 247 250 257 257 256 254
323 322 321 319 315 314 312 308 303 301 299 295 292 289 285 280 273 268 265 265 263 262 259 253 251 251 251 249 247 246 244 242 238 237 239 244 247 249 252 248 239 248 245
317 317 316 316 313 311 309 306 305 303 300 295 292 290 286 280 277 271 266 262 262 263 259 255 251 249 248 245 243 241 238 237 237 238 244 247 250 249 244 237 237 239 235
313 311 310 311 310 309 307 305 303 303 300 295 293 288 284 279 278 273 267 261 255 255 260 254 252 250 245 243 241 241 238 239 243 245 246 245 242 239 228 225 224 218 214
311 307 305 304 305 304 304 303 301 298 297 296 291 287 282 278 275 273 266 260 253 249 247 249 249 250 244 240 238 241 239 241 243 239 234 231 224 221 220 226 222 213 202
305 303 301 300 298 298 299 299 300 296 292 292 291 286 283 277 272 270 263 258 256 253 245 243 245 244 240 239 241 240 242 243 238 233 229 222 218 217 217 220 207 201 198
303 299 297 296 297 296 294 292 297 296 291 287 288 286 282 279 274 268 264 258 259 254 250 246 244 241 236 239 238 239 237 232 229 225 218 212 210 211 208 202 198 196 193
306 303 298 296 295 297 293 293 292 294 291 286 285 286 284 280 276 269 264 256 255 254 254 252 246 241 242 237 235 233 226 219 218 215 213 210 209 208 200 194 189 186 187
307 304 303 301 298 295 297 295 293 291 288 285 283 283 284 282 278 272 265 254 251 249 248 245 243 238 235 231 224 219 220 218 217 215 212 209 205 200 196 196 191 187 190
314 311 309 304 300 301 294 289 285 281 278 279 281 279 279 277 274 275 271 260 245 241 239 237 231 229 222 220 215 216 214 213 213 213 211 208 201 198 195 193 193 192 196
316 311 301 296 300 300 298 297 289 285 284 277 278 276 274 272 272 272 272 270 261 244 231 227 224 223 220 217 214 212 212 212 213 211 211 208 202 198 195 192 194 197 199
315 313 311 306 302 301 302 299 296 297 290 285 280 278 274 269 260 262 262 260 255 247 228 225 224 222 218 218 217 215 212 212 212 209 209 207 204 200 197 195 195 197 199
324 318 315 310 307 304 304 300 290 285 288 290 285 280 275 275 258 255 255 246 228 237 232 226 219 215 217 218 218 216 214 212 209 208 207 206 205 201 196 196 197 198 197
331 325 321 316 311 308 305 298 293 283 283 281 284 281 274 272 263 252 242 234 231 231 224 218 220 220 219 221 219 216 215 214 209 206 206 204 204 199 197 196 196 194 193
338 332 328 324 319 314 312 302 296 283 284 280 277 272 270 268 247 238 234 228 229 234 223 216 219 224 222 219 218 216 214 215 211 207 207 204 203 199 196 193 191 190 190
340 338 335 329 325 319 316 304 302 292 287 280 277 276 270 261 247 237 233 228 226 227 223 215 215 217 220 223 221 218 216 215 211 207 205 203 201 196 192 190 188 187 187
342 344 342 338 337 332 324 325 318 309 296 286 284 275 273 263 258 254 243 234 230 227 225 220 220 224 226 225 223 218 217 214 209 205 205 201 197 194 189 188 185 185 188
346 346 347 347 347 344 340 337 337 325 316 298 298 286 275 263 260 254 246 242 231 226 223 221 222 222 224 224 223 223 217 214 211 206 203 199 194 189 186 185 185 186 191
346 349 350 353 356 354 353 350 348 342 338 330 326 293 282 272 269 263 250 240 238 232 228 224 223 226 225 223 223 223 221 218 213 208 203 195 188 185 185 184 185 190 192
346 350 353 356 359 0 359 359 357 355 351 348 341 337 309 268 267 266 257 251 243 235 230 228 227 227 229 228 225 221 217 215 212 207 197 192 188 185 184 184 186 190 194
346 351 354 357 359 2 4 5 5 5 4 358 353 347 341 328 278 252 248 246 244 239 232 229 229 231 228 225 222 219 217 215 210 198 191 190 187 183 183 184 189 191 196
Wind_Speed_850mb
24 29 34 42 52 61 74 88 91 93 96 103 104 104 104 102 102 99 98 101 106 103 103 103 101 95 95 90 83 77 76 73 80 77 69 62 55 50 49 51 56 49 54
25 31 37 45 49 52 61 74 81 91 98 102 102 105 106 106 103 105 105 103 106 109 106 102 101 97 96 91 85 80 78 77 77 77 73 64 55 49 50 50 57 55 52
39 43 41 42 44 44 45 54 61 67 74 86 98 105 106 106 105 106 105 106 108 109 108 103 102 100 98 93 86 84 81 77 75 73 72 63 57 55 57 56 55 58 50
56 60 62 57 55 53 51 49 53 59 68 74 82 93 100 103 107 107 107 107 106 108 107 105 102 103 99 94 88 87 82 79 76 73 72 68 69 63 61 57 56 55 48
76 79 78 75 69 66 63 62 62 63 65 68 77 85 91 99 108 110 109 109 107 107 105 105 103 101 98 93 91 88 84 80 79 75 74 75 77 73 68 58 53 49 44
86 88 86 83 82 77 74 73 73 75 75 74 75 80 86 95 100 101 111 109 108 109 112 106 103 103 97 93 90 87 85 84 84 80 79 82 78 77 67 64 54 48 45
97 100 95 93 92 88 84 81 81 79 78 84 85 81 86 92 99 98 98 106 108 109 108 106 106 102 98 95 91 90 86 83 79 79 84 83 81 76 68 63 55 50 48
103 108 109 109 105 102 100 95 92 86 85 86 89 93 88 91 93 101 100 93 102 110 112 110 106 103 99 98 94 91 85 84 86 87 90 86 84 77 66 54 47 47 44
108 113 116 118 118 115 106 106 103 101 97 95 91 92 95 99 90 95 98 100 95 111 113 109 107 103 98 99 97 94 93 91 88 85 82 74 66 59 56 58 54 49 44
115 119 120 120 122 123 120 112 109 108 110 106 101 98 97 103 98 96 92 101 110 110 109 111 107 103 99 99 99 95 93 95 89 79 70 61 56 55 55 53 49 50 41
123 122 123 121 119 120 128 126 112 109 111 114 114 107 105 106 102 101 98 93 116 115 119 112 113 107 101 96 97 96 95 86 78 68 61 56 51 56 52 54 50 43 42
122 121 121 120 119 120 115 125 125 110 111 117 118 119 112 112 113 100 97 89 102 118 122 113 114 109 103 99 95 93 87 72 70 68 61 61 59 60 56 54 49 46 45
118 118 117 120 122 113 107 118 118 118 111 118 118 122 123 114 116 111 96 90 101 112 110 112 108 107 98 92 94 89 79 76 74 73 75 66 62 59 62 58 54 49 44
112 114 114 112 108 111 101 98 98 108 104 110 112 119 120 115 116 115 101 94 102 104 107 109 106 94 93 91 83 77 82 83 86 83 76 66 66 69 69 64 61 57 49
104 102 102 91 93 98 87 90 88 104 91 100 114 106 107 116 115 110 98 97 106 108 107 99 85 84 91 92 86 90 86 83 88 86 79 79 77 78 75 69 62 57 51
105 97 94 106 115 110 104 117 103 108 104 96 106 104 111 112 102 100 88 83 89 114 106 105 99 105 107 106 102 101 96 95 93 86 85 84 86 87 81 74 65 60 53
98 102 104 102 99 99 100 98 108 110 94 95 96 98 99 99 102 92 86 81 82 103 111 114 119 124 120 116 112 109 104 102 93 90 92 92 91 90 83 78 72 64 55
96 96 97 98 96 96 95 95 91 95 95 107 94 92 90 81 87 95 83 75 94 110 116 125 123 121 124 121 116 111 108 103 96 98 98 98 98 92 86 82 76 67 63
98 97 93 93 90 89 89 91 92 97 98 99 92 92 84 75 68 80 85 94 103 113 121 118 127 125 122 120 116 114 111 111 107 108 107 103 105 94 87 83 74 68 63
99 94 88 89 90 89 88 89 90 91 92 91 87 87 82 74 67 79 91 98 106 113 117 113 124 125 124 121 115 118 113 110 108 110 111 105 104 94 90 83 77 75 64
95 94 88 83 81 81 83 85 87 86 90 89 88 88 84 78 69 74 87 104 112 110 111 110 116 123 122 117 118 116 113 115 117 116 113 108 103 94 86 84 81 71 62
87 90 90 84 79 77 77 72 71 70 84 85 83 86 77 78 69 72 88 103 110 110 109 116 118 120 123 119 119 123 127 125 124 119 115 109 101 96 92 88 80 73 65
81 84 87 84 79 77 75 69 62 55 63 72 71 72 71 73 67 74 91 93 98 100 102 108 111 114 118 122 121 123 124 127 129 124 121 112 107 103 98 92 83 74 66
75 76 81 81 81 79 77 75 68 57 49 48 47 64 63 67 68 72 86 92 92 96 98 104 109 110 113 114 112 115 115 121 129 121 116 113 110 104 98 89 79 69 62
70 71 74 77 79 81 80 76 71 66 58 50 49 44 30 51 67 70 79 82 85 88 94 97 100 103 107 109 108 113 121 125 121 110 103 106 108 103 95 85 76 69 62
64 66 68 70 72 74 75 77 75 71 66 60 52 48 44 36 32 48 60 69 76 79 84 92 98 100 100 103 111 118 119 112 97 99 101 105 101 97 90 79 72 64 59
Wind_Direction_850mb
313 311 310 303 301 295 286 282 280 281 279 277 278 277 276 274 272 268 265 263 261 260 259 258 256 254 253 253 252 251 253 250 253 256 260 262 258 253 260 265 264 273 276
321 305 299 306 304 303 296 286 284 282 282 280 279 276 276 276 274 271 267 263 261 260 259 256 254 253 252 252 251 253 254 253 251 253 255 256 262 259 259 262 272 274 278
339 339 326 318 316 318 311 301 294 293 291 285 280 276 274 274 274 273 271 267 263 260 259 255 255 253 253 250 248 252 251 251 250 249 252 253 253 253 260 261 269 275 279
335 334 333 332 329 326 317 309 303 298 295 291 284 279 273 271 271 271 269 268 265 261 258 255 255 253 254 252 250 251 251 248 245 246 245 248 252 255 253 257 266 271 277
333 330 329 328 320 315 313 309 305 298 296 295 289 280 275 270 267 267 267 264 264 262 258 256 256 255 254 254 249 249 247 245 243 242 242 246 244 246 253 259 263 265 258
329 327 325 324 322 316 311 306 300 302 297 295 289 287 279 272 268 267 266 264 263 261 256 256 255 254 252 251 249 248 246 240 239 238 239 238 244 247 250 257 257 256 254
323 322 321 319 315 314 312 308 303 301 299 295 292 289 285 280 273 268 265 265 263 262 259 253 251 251 251 249 247 246 244 242 238 237 239 244 247 249 252 248 239 248 245
317 317 316 316 313 311 309 306 305 303 300 295 292 290 286 280 277 271 266 262 262 263 259 255 251 249 248 245 243 241 238 237 237 238 244 247 250 249 244 237 237 239 235
313 311 310 311 310 309 307 305 303 303 300 295 293 288 284 279 278 273 267 261 255 255 260 254 252 250 245 243 241 241 238 239 243 245 246 245 242 239 228 225 224 218 214
311 307 305 304 305 304 304 303 301 298 297 296 291 287 282 278 275 273 266 260 253 249 247 249 249 250 244 240 238 241 239 241 243 239 234 231 224 221 220 226 222 213 202
305 303 301 300 298 298 299 299 300 296 292 292 291 286 283 277 272 270 263 258 256 253 245 243 245 244 240 239 241 240 242 243 238 233 229 222 218 217 217 220 207 201 198
303 299 297 296 297 296 294 292 297 296 291 287 288 286 282 279 274 268 264 258 259 254 250 246 244 241 236 239 238 239 237 232 229 225 218 212 210 211 208 202 198 196 193
306 303 298 296 295 297 293 293 292 294 291 286 285 286 284 280 276 269 264 256 255 254 254 252 246 241 242 237 235 233 226 219 218 215 213 210 209 208 200 194 189 186 187
307 304 303 301 298 295 297 295 293 291 288 285 283 283 284 282 278 272 265 254 251 249 248 245 243 238 235 231 224 219 220 218 217 215 212 209 205 200 196 196 191 187 190
314 311 309 304 300 301 294 289 285 281 278 279 281 279 279 277 274 275 271 260 245 241 239 237 231 229 222 220 215 216 214 213 213 213 211 208 201 198 195 193 193 192 196
316 311 301 296 300 300 298 297 289 285 284 277 278 276 274 272 272 272 272 270 261 244 231 227 224 223 220 217 214 212 212 212 213 211 211 208 202 198 195 192 194 197 199
315 313 311 306 302 301 302 299 296 297 290 285 280 278 274 269 260 262 262 260 255 247 228 225 224 222 218 218 217 215 212 212 212 209 209 207 204 200 197 195 195 197 199
324 318 315 310 307 304 304 300 290 285 288 290 285 280 275 275 258 255 255 246 228 237 232 226 219 215 217 218 218 216 214 212 209 208 207 206 205 201 196 196 197 198 197
331 325 321 316 311 308 305 298 293 283 283 281 284 281 274 272 263 252 242 234 231 231 224 218 220 220 219 221 219 216 215 214 209 206 206 204 204 199 197 196 196 194 193
338 332 328 324 319 314 312 302 296 283 284 280 277 272 270 268 247 238 234 228 229 234 223 216 219 224 222 219 218 216 214 215 211 207 207 204 203 199 196 193 191 190 190
340 338 335 329 325 319 316 304 302 292 287 280 277 276 270 261 247 237 233 228 226 227 223 215 215 217 220 223 221 218 216 215 211 207 205 203 201 196 192 190 188 187 187
342 344 342 338 337 332 324 325 318 309 296 286 284 275 273 263 258 254 243 234 230 227 225 220 220 224 226 225 223 218 217 214 209 205 205 201 197 194 189 188 185 185 188
346 346 347 347 347 344 340 337 337 325 316 298 298 286 275 263 260 254 246 242 231 226 223 221 222 222 224 224 223 223 217 214 211 206 203 199 194 189 186 185 185 186 191
346 349 350 353 356 354 353 350 348 342 338 330 326 293 282 272 269 263 250 240 238 232 228 224 223 226 225 223 223 223 221 218 213 208 203 195 188 185 185 184 185 190 192
346 350 353 356 359 0 359 359 357 355 351 348 341 337 309 268 267 266 257 251 243 235 230 228 227 227 229 228 225 221 217 215 212 207 197 192 188 185 184 184 186 190 194
346 351 354 357 359 2 4 5 5 5 4 358 353 347 341 328 278 252 248 246 244 239 232 229 229 231 228 225 222 219 217 215 210 198 191 190 187 183 183 184 189 191 196